Regional Weather Roundup
Issued by NWS

Home | Current Version | Previous Version | Graphics & Text | Print | Product List | Glossary On
Versions: 1 2 3 4 5 6 7 8 9 10 11 12 13 14 15 16 17 18 19 20 21 22 23 24 25 26 27 28 29 30 31 32 33 34 35 36 37 38 39 40 41 42 43 44 45 46 47 48 49 50
000
ASUS43 KLOT 160458
RWRIL

ILLINOIS REGIONAL WEATHER ROUNDUP
NATIONAL WEATHER SERVICE CHICAGO/ROMEOVILLE IL
1200 AM CDT TUE SEP 16 2014

NOTE: "FAIR" INDICATES FEW OR NO CLOUDS BELOW 12,000 FEET WITH NO
SIGNIFICANT WEATHER AND/OR OBSTRUCTIONS TO VISIBILITY.

* THESE STATIONS ARE NOT UNDER NWS QUALITY CONTROL. THEY ALSO MAY NOT
  REPORT WEATHER SUCH AS PRECIPITATION OR FOG.

ILZ001-002-007-009-015-016-024-160600-
NORTHWEST ILLINOIS

CITY           SKY/WX    TMP DP  RH WIND       PRES   REMARKS
MOLINE         CLEAR     47  45  93 CALM      30.21S
$$

ILZ003-004-008-010-011-017-018-160600-
NORTH CENTRAL ILLINOIS

CITY           SKY/WX    TMP DP  RH WIND       PRES   REMARKS
ROCKFORD       NOT AVBL
$$

ILZ005-006-012>014-019>023-160600-
NORTHEAST ILLINOIS

CITY           SKY/WX    TMP DP  RH WIND       PRES   REMARKS
CHICAGO-OHARE  PTCLDY    52  48  86 NW6       30.18R
CHICAGO-MIDWAY PTCLDY    54  50  86 NW9       30.17S
AURORA         CLEAR     47  44  90 NW6       30.19R
WAUKEGAN       CLEAR     46  44  93 W3        30.17S FOG
DUPAGE AIRPORT CLEAR     48  45  89 NW5       30.18S
WHEELING       CLEAR     51  47  86 W3        30.19S
NORTHERLY ISL    N/A     54  48  80 NW5         N/A
$$

LMZ740>746-160600-
SOUTHERN LAKE MICHIGAN

STATION/POSITION SKY/WX   TEMP    WIND        PRES    VSBY  WAVE
                          AIR SEA DIR/SP/G                  HT/PER
                          (F)     (DEG/KT/KT) (MB)    (MI)  (FT/S)
SOUTHERN BUOY              58 64  340/ 10/ 14 1021.1R         2/ 4
WAUKEGAN HARBOR            51     310/  7/ 10   N/A
HARRISON CRIB              54     320/ 13/ 15   N/A
BURNHAM HARBOR             55     280/  3/ 12   N/A
CALUMET HARBOR             56                   N/A
MICHIGAN CITY              59     330/ 15/ 17   N/A
MICHIGAN CITY 6N           60 64  360/ 14/ 17   N/A           3/ 4
ST. JOSEPH                 58 66   50/  8/ 12   N/A           4/ 5
$$

ILZ025>027-034>036-040-047-049-050-058-095>099-160600-
WEST-CENTRAL ILLINOIS

CITY           SKY/WX    TMP DP  RH WIND       PRES   REMARKS
QUINCY         PTCLDY    54  50  87 N10       30.21R
$$

ILZ028>032-037-038-041>044-048-051>054-059>061-160600-
CENTRAL ILLINOIS

CITY           SKY/WX    TMP DP  RH WIND       PRES   REMARKS
PEORIA         NOT AVBL
SPRINGFIELD    PTCLDY    56  53  90 NE8       30.18S
TAYLORVILLE    NOT AVBL
$$

ILZ033-039-045-046-055>057-062-063-160600-
EAST-CENTRAL ILLINOIS

CITY           SKY/WX    TMP DP  RH WIND       PRES   REMARKS
MATTOON        CLOUDY    58  56  93 N8        30.13S
$$

ILZ079-100>102-160600-
SOUTHWEST ILLINOIS

CITY           SKY/WX    TMP DP  RH WIND       PRES   REMARKS
$$

ILZ064>066-069>071-074>076-080>082-084>086-088>090-092>094-160600-
SOUTH-CENTRAL ILLINOIS

CITY           SKY/WX    TMP DP  RH WIND       PRES   REMARKS
CARBONDALE     NOT AVBL
$$

ILZ067-068-072-073-078-083-087-091-160600-
SOUTHEAST ILLINOIS

CITY           SKY/WX    TMP DP  RH WIND       PRES   REMARKS
LAWRENCEVILLE  CLOUDY    61  61 100 N8        30.11S FOG
$$

ABBREVIATIONS USED IN REMARKS
   TC - TEMPERATURE IN CELSIUS
  WCI - WIND CHILL INDEX
   HX - HEAT INDEX
  VSB - VISIBILITY
$$



USA.gov is the U.S. government's official web portal to all federal, state and local government web resources and services.